Change the Weather History Date:

Tuesday, May 14, 2013

  Actual Average (KGUC) Record (KGUC)
Temperature  
Mean Temperature 44 °F -  
Max Temperature 50 °F 62 °F 71 °F (2013)
Min Temperature 37 °F 30 °F 19 °F (2004)
Degree Days  
Heating Degree Days 22    
Moisture  
Dew Point 30 °F    
Average Humidity 62    
Maximum Humidity 81    
Minimum Humidity 37    
Precipitation  
Precipitation 0.00 in - - ()
Sea Level Pressure  
Sea Level Pressure 30.60 in    
Wind  
Wind Speed 14 mph (NW)    
Max Wind Speed 28 mph    
Max Gust Speed 34 mph    
Averages and records for this station are not official NWS values.
T = Trace of Precipitation, MM = Missing Value Source: NWS Daily Summary

Daily Weather History Graph

Daily Weather History Graph

Search for Another Location

Airport or City:

Trip Planner

Search our weather history database for the weather conditions in past years. The results will help you decide how hot, cold, wet, or windy it might be!

Date:

Astronomy

May. 14, 2013 Rise Set
Actual Time 5:54 AM MDT 8:09 PM MDT
Civil Twilight 5:24 AM MDT 8:39 PM MDT
Nautical Twilight 4:48 AM MDT 9:15 PM MDT
Astronomical Twilight 4:08 AM MDT 9:55 PM MDT
Moon 9:36 AM MDT (5/14) 11:58 PM MDT (5/14)
Length of Visible Light 15h 14m
Length of Day
14h 15m
Waxing Crescent, 19% of the Moon is Illuminated
May 14
Waxing Crescent
May 17
First Quarter
May 24
Full
May 31
Last Quarter
Jun 8
New

Hourly Weather History & Observations

Time (MDT) Temp. Windchill Dew Point Humidity Pressure Visibility Wind Dir Wind Speed Gust Speed Precip Events Conditions
12:12 AM 41.0 °F 32.5 °F 30.2 °F 65% 30.68 in - WSW 17.3 mph - N/A   Clear
12:32 AM 41.0 °F 32.5 °F 30.2 °F 65% 30.67 in - WSW 17.3 mph - N/A   Clear
12:52 AM 41.0 °F 31.9 °F 30.2 °F 65% 30.67 in - WSW 19.6 mph - N/A   Clear
1:12 AM 41.0 °F 31.9 °F 30.2 °F 65% 30.66 in - WSW 19.6 mph - N/A   Clear
1:32 AM 41.0 °F 32.2 °F 30.2 °F 65% 30.66 in - West 18.4 mph - N/A   Clear
1:52 AM 41.0 °F 32.2 °F 30.2 °F 65% 30.65 in - WSW 18.4 mph - N/A   Clear
2:12 AM 41.0 °F 31.9 °F 28.4 °F 61% 30.64 in - WSW 19.6 mph - N/A   Clear
2:32 AM 41.0 °F 32.2 °F 28.4 °F 61% 30.64 in - WSW 18.4 mph - N/A   Clear
2:52 AM 41.0 °F 32.8 °F 30.2 °F 65% 30.64 in - WSW 16.1 mph - N/A   Clear
3:12 AM 41.0 °F 32.5 °F 28.4 °F 61% 30.63 in - West 17.3 mph - N/A   Clear
3:32 AM 41.0 °F 32.8 °F 28.4 °F 61% 30.63 in - West 16.1 mph - N/A   Clear
3:52 AM 41.0 °F 33.5 °F 28.4 °F 61% 30.63 in - WSW 13.8 mph - N/A   Clear
4:12 AM 41.0 °F 32.8 °F 28.4 °F 61% 30.63 in - WSW 16.1 mph - N/A   Clear
4:32 AM 41.0 °F 32.8 °F 28.4 °F 61% 30.63 in - WSW 16.1 mph - N/A   Clear
4:52 AM 39.2 °F 30.2 °F 28.4 °F 65% 30.62 in - WSW 17.3 mph - N/A   Clear
5:12 AM 37.4 °F 28.9 °F 28.4 °F 70% 30.62 in - SW 13.8 mph - N/A   Clear
5:32 AM 39.2 °F 30.8 °F 28.4 °F 65% 30.62 in - WSW 15.0 mph - N/A   Clear
5:52 AM 39.2 °F 30.2 °F 28.4 °F 65% 30.61 in - West 17.3 mph - N/A   Clear
6:12 AM 41.0 °F 32.5 °F 28.4 °F 61% 30.62 in - West 17.3 mph - N/A   Clear
6:32 AM 41.0 °F 32.5 °F 28.4 °F 61% 30.62 in - West 17.3 mph - N/A   Clear
6:52 AM 41.0 °F 34.3 °F 28.4 °F 61% 30.63 in - West 11.5 mph - N/A   Clear
7:12 AM 41.0 °F 35.8 °F 28.4 °F 61% 30.63 in - NW 8.1 mph - N/A   Clear
7:32 AM 42.8 °F 36.6 °F 26.6 °F 53% 30.63 in - NW 11.5 mph - N/A   Clear
7:52 AM 42.8 °F 36.6 °F 26.6 °F 53% 30.63 in - NNW 11.5 mph 18.4 mph N/A   Clear
8:12 AM 44.6 °F 42.2 °F 26.6 °F 49% 30.63 in - North 4.6 mph - N/A   Clear
8:32 AM 46.4 °F 42.4 °F 24.8 °F 43% 30.63 in - North 8.1 mph - N/A   Clear
8:52 AM 46.4 °F 41.1 °F 23.0 °F 40% 30.63 in - NNE 11.5 mph - N/A   Clear
9:12 AM 46.4 °F 43.5 °F 23.0 °F 40% 30.63 in - North 5.8 mph - N/A   Clear
9:32 AM 48.2 °F - 23.0 °F 37% 30.63 in - East 5.8 mph - N/A   Scattered Clouds
9:52 AM 48.2 °F - 26.6 °F 43% 30.63 in - ESE 5.8 mph - N/A   Clear
10:12 AM 46.4 °F 43.5 °F 30.2 °F 53% 30.63 in - West 5.8 mph - N/A   Clear
10:32 AM 44.6 °F 40.2 °F 30.2 °F 57% 30.63 in - SW 8.1 mph - N/A   Clear
10:52 AM 46.4 °F 41.5 °F 30.2 °F 53% 30.62 in - SSW 10.4 mph - N/A   Mostly Cloudy
11:12 AM 46.4 °F 40.4 °F 30.2 °F 53% 30.62 in - SW 13.8 mph 18.4 mph N/A   Overcast
11:32 AM 44.6 °F 38.4 °F 30.2 °F 57% 30.62 in - WSW 12.7 mph - N/A   Overcast
11:52 AM 44.6 °F 39.2 °F 28.4 °F 53% 30.62 in - NNE 10.4 mph 19.6 mph N/A   Overcast
12:12 PM 41.0 °F 31.4 °F 30.2 °F 65% 30.60 in - ESE 21.9 mph 29.9 mph N/A   Overcast
12:32 PM 42.8 °F 40.1 °F 30.2 °F 61% 30.60 in - South 4.6 mph - N/A   Overcast
12:52 PM 46.4 °F 42.9 °F 30.2 °F 53% 30.59 in - West 6.9 mph - N/A   Overcast
1:12 PM 50.0 °F - 28.4 °F 43% 30.58 in - NNW 4.6 mph - N/A   Mostly Cloudy
1:32 PM 50.0 °F - 28.4 °F 43% 30.57 in - NNE 16.1 mph 21.9 mph N/A   Scattered Clouds
1:52 PM 48.2 °F - 28.4 °F 46% 30.56 in - North 18.4 mph 25.3 mph N/A   Clear
2:12 PM 50.0 °F - 26.6 °F 40% 30.56 in - North 17.3 mph 21.9 mph N/A Thunderstorm Thunderstorm
2:32 PM 50.0 °F - 24.8 °F 37% 30.55 in - East 9.2 mph - N/A Thunderstorm Thunderstorm
2:52 PM 46.4 °F 40.1 °F 28.4 °F 50% 30.55 in - East 15.0 mph 21.9 mph N/A Thunderstorm Thunderstorm
3:12 PM 44.6 °F 38.4 °F 30.2 °F 57% 30.56 in - SE 12.7 mph 19.6 mph N/A   Scattered Clouds
3:32 PM 44.6 °F 38.4 °F 30.2 °F 57% 30.56 in - ENE 12.7 mph - N/A   Mostly Cloudy
3:52 PM 42.8 °F 32.7 °F 30.2 °F 61% 30.54 in - ENE 27.6 mph 34.5 mph N/A   Mostly Cloudy
4:12 PM 41.0 °F 31.6 °F 32.0 °F 70% 30.55 in - ENE 20.7 mph 27.6 mph N/A   Overcast
4:32 PM 41.0 °F 31.6 °F 32.0 °F 70% 30.54 in - ENE 20.7 mph - N/A   Mostly Cloudy
4:52 PM 41.0 °F 31.9 °F 32.0 °F 70% 30.55 in - NE 19.6 mph 28.8 mph N/A   Mostly Cloudy
5:12 PM 41.0 °F 31.1 °F 33.8 °F 76% 30.55 in - ENE 23.0 mph 28.8 mph N/A   Mostly Cloudy
5:32 PM 41.0 °F 32.5 °F 33.8 °F 76% 30.56 in - ENE 17.3 mph - N/A   Overcast
5:52 PM 39.2 °F 31.6 °F 32.0 °F 75% 30.56 in - ENE 12.7 mph - N/A   Overcast
6:12 PM 39.2 °F 35.0 °F 33.8 °F 81% 30.56 in - NE 5.8 mph - N/A   Overcast
6:32 PM 39.2 °F - 32.0 °F 75% 30.56 in - Calm Calm - N/A   Overcast
6:52 PM 39.2 °F 32.5 °F 32.0 °F 75% 30.55 in - WSW 10.4 mph - N/A   Overcast
7:12 PM 37.4 °F 30.3 °F 32.0 °F 81% 30.55 in - West 10.4 mph - N/A   Overcast
7:32 PM 39.2 °F 33.6 °F 32.0 °F 75% 30.55 in - NW 8.1 mph - N/A   Overcast
7:52 PM 37.4 °F 30.8 °F 32.0 °F 81% 30.56 in - NW 9.2 mph - N/A   Overcast
8:12 PM 39.2 °F 32.5 °F 32.0 °F 75% 30.55 in - North 10.4 mph 16.1 mph N/A   Overcast
8:32 PM 39.2 °F 30.5 °F 32.0 °F 75% 30.55 in - NNE 16.1 mph - N/A   Overcast
8:52 PM 39.2 °F 31.6 °F 32.0 °F 75% 30.56 in - NNE 12.7 mph - N/A   Overcast
9:12 PM 39.2 °F 33.6 °F 32.0 °F 75% 30.56 in - NNE 8.1 mph - N/A   Overcast
9:32 PM 41.0 °F 38.0 °F 30.2 °F 65% 30.56 in - NNW 4.6 mph - N/A   Overcast
9:52 PM 37.4 °F 31.4 °F 32.0 °F 81% 30.56 in - WNW 8.1 mph - N/A   Overcast
10:12 PM 41.0 °F 36.4 °F 32.0 °F 70% 30.56 in - North 6.9 mph - N/A   Overcast
10:32 PM 41.0 °F 38.0 °F 30.2 °F 65% 30.55 in - North 4.6 mph - N/A   Overcast
10:52 PM 41.0 °F 37.1 °F 30.2 °F 65% 30.55 in - North 5.8 mph - N/A   Mostly Cloudy
11:12 PM 41.0 °F 36.4 °F 30.2 °F 65% 30.53 in - NE 6.9 mph - N/A   Overcast
11:32 PM 41.0 °F 38.0 °F 30.2 °F 65% 30.53 in - NE 4.6 mph - N/A   Mostly Cloudy
11:52 PM 41.0 °F - 28.4 °F 61% 30.53 in - Calm Calm - N/A   Overcast